sat.trackr.live / text

‹ back to catalog

BRO-1

NORAD 44495 · 2019-054A

PAYLOAD ACTIVE UNKNOWN

§ Identity

Operator
Country
FR
Launch date
2019-08-19
Launch site
RLLB
Launch vehicle
Mass (kg)
RCS (m²)

External: N2YO · Heavens-Above · Gunter

§ Orbital elements

Epoch: 2026-07-18T16:06:46.826784Z

Period
87.68 min
Inclination
44.9686°
Eccentricity
0.0008980
Mean motion
16.42254960 rev/d
Perigee alt
153.9 km
Apogee alt
165.7 km
Semi-major
6,537.9 km
B*
4.6223e-4
RAAN
96.8667°
Arg perigee
246.6096°
Mean anomaly
113.3886°
Rev number
38,479

§ Raw data

BRO-11 44495U 19054A   26199.67137531  .08990616  10538-4  46223-3 0  99952 44495  44.9686  96.8667 0008980 246.6096 113.3886 16.42254960384795

JSON: /api/v1/satellites/44495 · /tle

For live sub-satellite position, see the globe view (requires WebGL).

§ Visibility from observer

Set your observer location to see the next 7 days of passes ≥ 10°. The values pass through the URL so the page stays shareable.

No JS? Fill the form by hand. The geolocation button needs JavaScript.